Tracking 20626 objects as of 8-Apr-2020
HD Live streaming from Space Station
objects crossing your sky now

CZ-4C R/B

Track CZ-4C R/B now!
10-day predictions


NORAD ID: 39014
Int'l Code: 2012-066D
Perigee: 705.0 km
Apogee: 1,306.9 km
Inclination: 63.4 °
Period: 105.1 minutes
Semi major axis: 7376 km
RCS: 7.8899 m2 (large)
Launch date: November 25, 2012
Source: People's Republic of China (PRC)
Launch site: Jiuquan Satellite Launch Center, China (JSC)

Note: This is a ROCKET BODY
aabbcc
Your satellite tracking list
Your tracking list is empty




NASA's NSSDC Master Catalog

Two Line Element Set (TLE):
1 39014U 12066D   20098.80073737 -.00000088 +00000-0 +59244-5 0  9992
2 39014 063.4189 058.7731 0407964 005.0698 355.4283 13.70214782368607
Source of the keplerian elements: AFSPC